Location: Miles
(41.4492°N, 81.6087°W)
Time: 06:49:02
(UTC+00:00)

Vanguard 1 Rocket - Pass Details

Date: 17 September 2024
Orbit: 650 x 4218 km, 34.3° (Epoch: 05 October)

Event Time Altitude Azimuth Distance (km) Brightness Sun altitude
Rises 12:37:22 0° 275° (W) 6,721 11.2 15.6°
Reaches altitude 10° 12:41:13 10° 273° (W) 6,073 11.0 16.3°
Maximum altitude 13:02:25 64° 199° (SSW) 4,413 11.1 20.1°
Drops below altitude 10° 13:27:25 10° 125° (SE) 6,953 13.6 24.6°
Sets 13:32:15 0° 122° (ESE) 7,684 13.4 25.4°
